小惑星2010 EE21

2010 EE21

English version
Home page
Updated on March 6, 2011

---------------------------------------------------------------------

・ プロフィール

・ 軌道要素

The following orbital elements are taken from MPO180026

Epoch 2011 Feb. 8.0 TT = JDT 2455600.5                  MPC
M   9.70648              (2000.0)            P               Q
n   0.04019795     Peri.  243.84969     -0.39605997     -0.76613527
a   8.4398247      Node   239.12546     +0.89893756     -0.43590032
e   0.6224007      Incl.   36.13574     -0.18721049     -0.47225805
P  24.5            H   16.1           G   0.15           U   7
From 30 observations 2010 Mar. 1-21, mean residual 0".57.

・ 光度変化

        H = 16.1  G = 0.15

---------------------------------------------------------------------

軌道要素はMPCのEphemerides and Orbital Elementsに掲載されたものです。
光度グラフはComet for Windowsで作成したものです。

---------------------------------------------------------------------

Copyright(C) Seiichi Yoshida (comet@aerith.net). All rights reserved.